OBJECT Q, 59065

Orbit data source: Space-Track

You're viewing an Uncataloged Satellite

Recently launched and/or uncataloged satellites may have evolving metadata. Metadata may include but not limited to: Owner, Maufacturer, Bus, Motor, and Mission.

OBJECT Q, 59065 is a satellite in SSO that was launched on Thu, 29 Feb 2024 UTC via a SOYUZ-2-1B launch vehicle from the Vostochny Cosmodrome (VOSTO). Unknown objects in Earth's orbit typically refer to objects detected orbiting the Earth but have not yet been identified or cataloged. These objects could be anything from previously untracked satellites, spent rocket stages, debris from satellite collisions, or even natural meteoroids temporarily captured by Earth's gravity.

Loading next visibility...
Identifier
59065, 2024-039Q
Orbit
SSO
Country
Flag of TBDTBD
Related business
Manufacturer
ISRC
Mission
Operational Civil Imaging
Bus & Motor
MEHDA, Unknown motor
Mass
134 kg wet, 134 kg dry
Launch date (UTC)
2024-02-29 (2 years ago)
Launch vehicle
SOYUZ-2-1B
Launch site
Vostochny Cosmodrome (VOSTO)
Object type
Unknown
Shape & HBR
Box, 0.3 m
Radar Cross Section
0.375 m², Medium (>0.1 m² and < 1m²)

Expand to show TLE details & history
Last TLE update: 7 hours ago

TLE from 7 hours ago
0 OBJECT Q
1 59065U 24039Q   26124.21539041  .00011679  00000-0  25078-3 0  9992
2 59065  97.4811 103.7891 0007332 274.0731  85.9679 15.44835251121854
Epoch: 2026-05-04T05:10Z
TLE epoch observation values (Epoch: 2026-05-04T05:10:09.731Z)
Latitude
-0.00004°
Longitude
164.14078°
Altitude
434.636 km
Speed
7.651 km/s
True Right ascension
06h 55m 09s
True Declination
0° 00' 00"
Sunlit
Object was in daylight at epoch
Visualization orbit readout
Latitude
Unknown
Longitude
Unknown
Altitude
Unknown
Speed
Unknown
Apparent Right ascension
Unknown
Apparent Declination
Unknown
Sunlit
N/A
Visualization observer readout
Local Sidereal Time
19:39:50
Azimuth
Unknown
Elevation
Unknown
Doppler factor
Unknown
Orbital elements
Apogee altitude
433.789 km
Perigee altitude
423.807 km
Semi-major axis
6,806.935 km
Eccentricity
0.00073
Inclination
97.4811°
RAAN
103.7891°
Arg. of periapsis
274.0731°
True anomaly
86.05172°
Mean anomaly
85.9679°
Eccentric anomaly
86.00981°
Mean motion
3.8647 °/min
Orbital period
93.15 mins
BSTAR
0.00025078
Loading maneuver chart data...
Computing Atmospheric mass density...
Loading historical data...
Loading historical data...
Loading historical data...
Loading historical data...
Loading historical data...
Loading historical data...
Loading historical data...

Documentation

Showing up to 5 results
|